Date String (YYYY-MM-DD hh:mm:ss) UTC,Instrument flags,absolute air pressure of the measurement (hPa),sample flow rate (lpm),inlet stack bypass flow (lpm),air temperature of the measurement (°C),ambient temperature measured by the external sensor (°C),aerosol sample conditioner tube jacket temperature (°C),OPC LED temperature (°C),internal box temperature (°C),relative humidity of the measurement (%),span deviation,mass concentration of particles derived from Lorenz-Mie calculation of OPC scattering (μg/m³),mass concentration of particles derived from Lorenz-Mie calculation of OPC scattering (μg/m³),mass concentration of particles derived from Lorenz-Mie calculation of OPC scattering (μg/m³)
DateTimeUTC,F1_M11,P_M11,Q1_M11,Q2_M11,T1_M11,T2_M11,T3_M11,T4_M11,T5_M11,U1_M11,ZSPAN_M11,X0_M11,X2_M11,X1_M11
2023-07-28 12:00:00,SystemResetWarning,0834.6,5.00,000.00,029.7,028.5,000.0,038.1,031.3,26.5,0000.0,0009.18,0003.74,0003.13
2023-07-28 12:01:00,SystemResetWarning,0834.6,5.00,000.00,029.7,028.6,000.0,038.1,031.4,26.5,0000.0,0010.07,0003.79,0003.13
2023-07-28 12:02:00,SystemResetWarning,0834.9,4.99,000.00,029.7,028.6,000.0,038.1,031.4,26.1,0000.0,0010.09,0003.80,0003.13
2023-07-28 12:03:00,SystemResetWarning,0834.7,4.99,000.00,029.8,028.0,000.0,038.1,031.3,26.3,0000.0,0010.26,0003.79,0003.13
2023-07-28 12:04:00,SystemResetWarning,0834.7,5.01,000.00,029.7,026.0,000.0,038.0,031.1,26.5,0000.0,0011.13,0003.85,0003.14
2023-07-28 12:05:00,SystemResetWarning,0835.2,5.01,000.00,029.6,025.4,000.0,037.9,030.8,26.9,0000.0,0011.61,0003.88,0003.14
2023-07-28 12:06:00,SystemResetWarning,0835.4,5.01,000.00,029.5,025.5,000.0,037.9,030.6,27.3,0000.0,0011.41,0003.94,0003.15
2023-07-28 12:07:00,SystemResetWarning,0835.3,4.99,000.00,029.4,025.9,000.0,037.9,030.6,27.9,0000.0,0011.42,0004.01,0003.16
2023-07-28 12:08:00,SystemResetWarning,0835.0,4.99,000.00,029.4,026.3,000.0,037.9,030.7,28.0,0000.0,0011.77,0004.04,0003.17
2023-07-28 12:09:00,SystemResetWarning,0834.9,5.00,000.00,029.4,026.7,000.0,037.9,030.8,28.0,0000.0,0012.31,0004.05,0003.18
2023-07-28 12:10:00,SystemResetWarning,0834.9,5.01,000.00,029.4,027.0,000.0,037.9,030.9,28.0,0000.0,0012.60,0004.05,0003.18
2023-07-28 12:11:00,SystemResetWarning,0835.0,5.00,000.00,029.4,027.3,000.0,037.9,030.9,28.1,0000.0,0011.85,0004.03,0003.19
2023-07-28 12:12:00,SystemResetWarning,0835.0,5.00,000.00,029.4,027.5,000.0,037.9,030.9,28.2,0000.0,0011.05,0004.01,0003.19
2023-07-28 12:13:00,SystemResetWarning,0835.0,5.00,000.00,029.4,027.7,000.0,037.9,031.0,28.3,0000.0,0011.05,0003.99,0003.18
2023-07-28 12:14:00,SystemResetWarning,0835.0,4.99,000.00,029.4,027.9,000.0,037.9,031.0,28.4,0000.0,0011.69,0004.03,0003.18
2023-07-28 12:15:00,SystemResetWarning,0835.0,5.00,000.00,029.5,028.0,000.0,037.9,031.1,28.2,0000.0,0012.53,0004.08,0003.19
2023-07-28 12:16:00,SystemResetWarning,0835.0,5.00,000.00,029.5,028.1,000.0,038.0,031.1,28.0,0000.0,0013.05,0004.11,0003.19
2023-07-28 12:17:00,SystemResetWarning,0835.0,4.99,000.00,029.5,028.2,000.0,038.0,031.1,27.7,0000.0,0013.62,0004.10,0003.19
2023-07-28 12:18:00,SystemResetWarning,0835.0,5.00,000.00,029.5,028.3,000.0,038.0,031.2,27.7,0000.0,0014.22,0004.18,0003.20
2023-07-28 12:19:00,SystemResetWarning,0835.0,5.01,000.00,029.6,028.4,000.0,038.0,031.2,28.1,0000.0,0015.31,0004.28,0003.19
2023-07-28 12:20:00,SystemResetWarning,0835.0,5.00,000.00,029.6,028.4,000.0,038.0,031.2,27.7,0000.0,0016.23,0004.36,0003.19
2023-07-28 12:21:00,SystemResetWarning,0835.0,4.99,000.00,029.6,028.5,000.0,038.0,031.3,27.7,0000.0,0016.43,0004.45,0003.20
2023-07-28 12:22:00,SystemResetWarning,0835.1,5.00,000.00,029.7,028.5,000.0,038.1,031.3,27.6,0000.0,0018.43,0004.55,0003.21
2023-07-28 12:23:00,SystemResetWarning,0835.1,4.99,000.00,029.7,028.6,000.0,038.1,031.3,27.5,0000.0,0021.33,0004.69,0003.22
2023-07-28 12:24:00,SystemResetWarning,0835.1,5.00,000.00,029.7,028.6,000.0,038.1,031.4,27.5,0000.0,0023.89,0004.84,0003.25
2023-07-28 12:25:00,SystemResetWarning,0835.1,5.00,000.00,029.7,028.4,000.0,038.1,031.4,27.4,0000.0,0025.40,0004.93,0003.27
2023-07-28 12:26:00,SystemResetWarning,0835.0,5.00,000.00,029.7,026.7,000.0,038.0,031.2,27.5,0000.0,0025.09,0004.98,0003.27
2023-07-28 12:27:00,SystemResetWarning,0835.0,5.00,000.00,029.6,025.5,000.0,037.9,030.9,27.5,0000.0,0025.03,0005.01,0003.28
2023-07-28 12:28:00,SystemResetWarning,0834.9,5.01,000.00,029.5,025.4,000.0,037.9,030.7,27.6,0000.0,0024.66,0005.04,0003.29
2023-07-28 12:29:00,SystemResetWarning,0834.8,5.02,000.00,029.4,025.7,000.0,037.9,030.6,27.6,0000.0,0025.69,0005.05,0003.29
2023-07-28 12:30:00,SystemResetWarning,0835.1,4.99,000.00,029.4,026.1,000.0,037.9,030.7,27.7,0000.0,0025.58,0005.03,0003.30
2023-07-28 12:31:00,SystemResetWarning,0834.9,5.00,000.00,029.4,026.5,000.0,037.9,030.8,27.7,0000.0,0026.48,0005.02,0003.31
2023-07-28 12:32:00,SystemResetWarning,0835.0,5.00,000.00,029.4,026.8,000.0,037.9,030.8,27.7,0000.0,0028.33,0005.04,0003.31
2023-07-28 12:33:00,SystemResetWarning,0835.0,5.00,000.00,029.4,027.1,000.0,037.9,030.9,27.7,0000.0,0027.75,0005.07,0003.32
2023-07-28 12:34:00,SystemResetWarning,0835.0,5.00,000.00,029.4,027.3,000.0,037.9,030.9,27.6,0000.0,0026.00,0005.00,0003.32
2023-07-28 12:35:00,SystemResetWarning,0835.1,4.99,000.00,029.4,027.5,000.0,037.9,030.9,27.7,0000.0,0024.95,0004.90,0003.32
2023-07-28 12:36:00,SystemResetWarning,0835.1,5.00,000.00,029.4,027.7,000.0,037.9,031.0,28.0,0000.0,0024.31,0004.87,0003.32
2023-07-28 12:37:00,SystemResetWarning,0835.1,4.99,000.00,029.4,027.8,000.0,037.9,031.0,28.1,0000.0,0023.17,0004.78,0003.31
2023-07-28 12:38:00,SystemResetWarning,0835.2,5.00,000.00,029.4,027.9,000.0,037.9,031.0,28.1,0000.0,0022.91,0004.79,0003.31
2023-07-28 12:39:00,SystemResetWarning,0835.1,5.00,000.00,029.5,028.0,000.0,037.9,031.0,27.7,0000.0,0023.31,0004.82,0003.31
2023-07-28 12:40:00,SystemResetWarning,0835.1,5.01,000.00,029.5,028.1,000.0,037.9,031.1,27.7,0000.0,0022.38,0004.83,0003.33
2023-07-28 12:41:00,SystemResetWarning,0835.1,5.00,000.00,029.5,028.1,000.0,038.0,031.1,28.3,0000.0,0023.52,0004.83,0003.33
2023-07-28 12:42:00,SystemResetWarning,0835.1,5.00,000.00,029.5,028.2,000.0,038.0,031.1,28.5,0000.0,0021.69,0004.82,0003.33
2023-07-28 12:43:00,SystemResetWarning,0835.1,5.00,000.00,029.5,028.2,000.0,038.0,031.1,27.9,0000.0,0019.72,0004.81,0003.34
2023-07-28 12:44:00,SystemResetWarning,0835.2,4.99,000.00,029.6,028.3,000.0,038.0,031.2,28.4,0000.0,0018.50,0004.76,0003.35
2023-07-28 12:45:00,SystemResetWarning,0835.1,4.99,000.00,029.6,028.3,000.0,038.0,031.2,29.1,0000.0,0018.08,0004.73,0003.34
2023-07-28 12:46:00,SystemResetWarning,0835.1,5.01,000.00,029.6,028.3,000.0,038.0,031.2,28.7,0000.0,0016.94,0004.72,0003.35
2023-07-28 12:47:00,SystemResetWarning,0835.0,5.01,000.00,029.6,028.3,000.0,038.0,031.2,28.8,0000.0,0016.53,0004.69,0003.34
2023-07-28 12:48:00,SystemResetWarning,0835.0,5.01,000.00,029.7,028.4,000.0,038.1,031.3,30.2,0000.0,0016.24,0004.65,0003.34
2023-07-28 12:49:00,SystemResetWarning,0835.0,4.99,000.00,029.7,028.4,000.0,038.1,031.3,30.2,0000.0,0016.07,0004.60,0003.35
2023-07-28 12:50:00,SystemResetWarning,0835.1,4.99,000.00,029.7,028.5,000.0,038.1,031.3,29.9,0000.0,0015.58,0004.52,0003.35
2023-07-28 12:51:00,SystemResetWarning,0835.1,5.00,000.00,029.7,028.5,000.0,038.1,031.3,30.3,0000.0,0015.04,0004.43,0003.33
2023-07-28 12:52:00,SystemResetWarning,0835.1,5.00,000.00,029.7,028.5,000.0,038.1,031.4,30.9,0000.0,0013.55,0004.42,0003.33
2023-07-28 12:53:00,SystemResetWarning,0835.1,5.01,000.00,029.8,028.6,000.0,038.2,031.4,30.8,0000.0,0013.30,0004.41,0003.33
2023-07-28 12:54:00,SystemResetWarning,0835.1,5.01,000.00,029.8,028.6,000.0,038.2,031.4,31.5,0000.0,0014.12,0004.42,0003.32
2023-07-28 12:55:00,SystemResetWarning,0835.1,5.00,000.00,029.8,028.6,000.0,038.2,031.4,31.1,0000.0,0014.67,0004.39,0003.31
2023-07-28 12:56:00,SystemResetWarning,0835.1,4.98,000.00,029.8,028.4,000.0,038.2,031.4,30.6,0000.0,0014.18,0004.38,0003.30
2023-07-28 12:57:00,SystemResetWarning,0835.2,5.00,000.00,029.8,026.7,000.0,038.1,031.3,30.1,0000.0,0014.01,0004.43,0003.31
2023-07-28 12:58:00,SystemResetWarning,0835.1,5.00,000.00,029.7,025.7,000.0,038.0,031.1,30.1,0000.0,0013.62,0004.43,0003.32
2023-07-28 12:59:00,SystemResetWarning,0835.2,5.00,000.00,029.6,025.7,000.0,038.0,030.9,30.6,0000.0,0014.27,0004.45,0003.32
